Terminal Aerodrome Forecast
Issued by NWS Missoula, MT

Home | Current Version | Previous Version | Text Only | Print | Product List | Glossary On
Versions: 1 2 3 4 5 6 7 8 9 10 11 12 13
149
FTUS45 KMSO 170153 AAA
TAFBTM
TAF AMD
KBTM 170153Z 1702/1724 34008KT P6SM SKC
     FM170300 16006KT P6SM SKC=

USA.gov is the U.S. government's official web portal to all federal, state and local government web resources and services.